Location: Unspecified
(0.0000°N, 0.0000°E)
Time: 12:20:21
(UTC+00:00)

N. Korean satellite - Pass Details

Date: 17 June 2021
Orbit: 450 x 500 km, 97.2° (Epoch: 18 June)

Event Time Altitude Azimuth Distance (km) Brightness Sun altitude
Rises 04:29:03 0° 28° (NNE) 2,553 11.1 -21.0°
Reaches altitude 10° 04:31:17 10° 39° (NE) 1,682 10.2 -20.5°
Maximum altitude 04:34:29 29° 101° (E) 926 8.5 -19.8°
Drops below altitude 10° 04:37:42 10° 163° (SSE) 1,701 9.2 -19.0°
Enters shadow 04:38:44 - 169° (S) 2,093 9.6 -18.8°
